Weather in Palm Beach

Aruba     12°34′29″N   70°02′37″W
temp.,
°C
wind,
m/s
gust,
m/s
humid.,
%
clouds,
%
prec.,
mm/h
press.,
hPa
HPBL,
m
5 march, fri
fri523:00+26e10118135 0.0 1014846
02:00+26e9118217 0.0 1012890
05:00+26e798051 0.1 1012930
08:00+26e788248 0.3 1012729
11:00+26e78834 0.1 1014676
14:00+26e79832 0.1 1011652
17:00+26ene79840 0.0 1009664
20:00+26ene810850 0.0 1010763
6 march, sat
sat623:00+26e9118371 0.1 1012842
02:00+26e9118357 0.1 1011813
05:00+26e8118513 0.1 1010677
08:00+26e10138427 0.3 1011787
11:00+27ese9138496 0.1 1013813
14:00+27e10138365 0.1 1011736
17:00+26e10138466 0.0 1009762
20:00+26e11148450 0.0 1010748
7 march, sun
sun723:00+26e1114820 0.0 1012795
02:00+26e1114837 0.0 1011974
05:00+26e12148292 0.1 10111016
08:00+26e12148285 0.2 1013922
11:00+27e1114837 0.1 1014845
14:00+27e11148337 0.1 1012881
17:00+26e101383100 0.0 1010809
20:00+26e11148487 0.0 1011836
8 march, mon
mon823:00+26e11138468 0.0 1013945
02:00+26e11138481 0.2 1012931
05:00+26e111383100 0.3 1012890
08:00+27e10148292 0.5 1014865
11:00+27e10138141 0.1 1015730
14:00+26e10128359 0.1 1013851
17:00+26e10128235 0.0 1011847
20:00+26ene10138234 0.0 1013832
9 march, tue
tue923:00+26e10138132 0.0 10141009
02:00+26e10128135 0.2 1013981
05:00+26e10128184 0.3 1012991
08:00+26e11138092 0.3 10141028
11:00+26e101179100 0.1 10151112
14:00+26e10127896 0.1 10121067
17:00+26e1012784 0.0 1010982
20:00+26e1012792 0.0 10121053